1491199200.37,32140,15.31,74128.8,5.21,-26.29,-26.97,0,*7A
1491199201.59,32141,15.31,74130.5,5.21,-25.91,-26.39,0,*7F
1491199202.81,32142,15.31,74130.8,5.23,-26.07,-26.77,0,*78
1491199204.03,32143,15.31,74130.0,5.23,-26.39,-26.93,0,*7E
1491199205.24,32144,15.31,74130.8,5.23,-26.61,-27.29,0,*74
1491199206.43,32145,15.31,74128.5,5.23,-26.49,-27.13,0,*76
1491199207.69,32146,15.31,74128.5,5.23,-26.81,-27.61,0,*74
1491199208.89,32147,15.31,74130.5,5.23,-26.49,-27.13,0,*74
1491199210.1,32148,15.31,74130.8,5.23,-26.23,-26.81,0,*7D
1491199211.32,32149,15.31,74130.8,5.23,-26.23,-26.81,0,*7C
1491199212.54,32150,15.31,74126.0,5.23,-26.61,-27.23,0,*7B
1491199213.8,32151,15.31,74130.0,5.23,-26.77,-27.39,0,*76
1491199215.05,32152,15.31,74128.0,5.23,-26.81,-27.45,0,*77
1491199216.29,32153,15.31,74130.0,5.23,-26.29,-26.93,0,*7E
1491199217.52,32154,15.31,74128.0,5.25,-26.61,-27.35,0,*7E
1491199218.72,32155,15.31,74130.3,5.25,-26.39,-27.13,0,*76
1491199219.94,32156,15.31,74130.0,5.23,-26.93,-27.55,0,*71
1491199221.17,32157,15.31,74128.0,5.23,-26.93,-27.55,0,*70
1491199222.38,32158,15.31,74124.8,5.23,-26.65,-27.29,0,*7D
1491199223.57,32159,15.31,74126.3,5.23,-26.49,-27.13,0,*7B
1491199224.77,32160,15.31,74128.8,5.23,-26.39,-27.07,0,*73
1491199226.02,32161,15.31,74128.0,5.23,-26.93,-27.45,0,*74
1491199227.24,32162,15.31,74128.0,5.23,-26.93,-27.55,0,*76
1491199228.46,32163,15.31,74126.8,5.23,-26.61,-27.23,0,*7B
1491199229.68,32164,15.31,74128.0,5.23,-26.61,-27.23,0,*7C
1491199230.94,32165,15.31,74126.0,5.23,-26.93,-27.61,0,*76
1491199232.13,32166,15.31,74128.0,5.23,-27.13,-27.77,0,*7B
1491199233.38,32167,15.31,74128.3,5.23,-26.93,-27.61,0,*74
1491199234.61,32168,15.31,74130.3,5.23,-27.29,-27.99,0,*7C
1491199235.85,32169,15.31,74126.0,5.19,-26.71,-27.45,0,*79
1491199237.12,32170,15.31,74126.8,5.21,-26.77,-27.45,0,*7C
1491199238.37,32171,15.31,74128.8,5.21,-26.81,-27.55,0,*75
1491199239.64,32172,15.31,74130.3,5.21,-26.81,-27.45,0,*77
1491199240.89,32173,15.31,74126.8,5.21,-26.61,-27.39,0,*73
1491199242.12,32174,15.31,74130.5,5.21,-26.61,-27.29,0,*75
1491199243.33,32175,15.31,74128.0,5.21,-26.45,-27.13,0,*7B
1491199244.61,32176,15.31,74126.5,5.21,-26.13,-26.81,0,*71
1491199245.83,32177,15.31,74128.0,5.21,-26.39,-27.07,0,*77
1491199247.06,32178,15.31,74130.0,5.23,-26.65,-27.39,0,*7E
1491199248.28,32179,15.31,74126.3,5.25,-26.45,-27.19,0,*79
1491199249.48,32180,15.31,74130.0,5.23,-26.49,-27.07,0,*7A
1491199250.68,32181,15.31,74128.0,5.25,-26.45,-27.07,0,*71
1491199251.92,32182,15.31,74124.5,5.25,-26.33,-27.03,0,*77
1491199253.15,32183,15.31,74128.3,5.23,-26.65,-27.39,0,*7A
1491199254.37,32184,15.31,74126.8,5.25,-26.71,-27.55,0,*74
1491199255.59,32185,15.31,74128.0,5.25,-26.23,-26.93,0,*79
1491199256.81,32186,15.31,74126.5,5.25,-26.07,-26.71,0,*70
1491199258.02,32187,15.31,74124.3,5.25,-26.45,-27.03,0,*73
1491199259.22,32188,15.31,74128.3,5.25,-26.23,-27.03,0,*7C
1491199260.45,32189,15.31,74128.0,5.25,-26.33,-27.03,0,*7C
1491199261.68,32190,15.31,74128.8,5.25,-26.61,-27.35,0,*76
1491199262.88,32191,15.31,74128.3,5.25,-27.03,-27.77,0,*74
1491199264.13,32192,15.31,74130.3,5.25,-26.71,-27.39,0,*79
1491199265.37,32193,15.31,74126.3,5.25,-26.55,-27.23,0,*75
1491199266.6,32194,15.31,74126.5,5.25,-26.45,-27.19,0,*7A
1491199267.85,32195,15.31,74130.0,5.23,-26.77,-27.39,0,*7E
1491199269.09,32196,15.31,74130.0,5.25,-26.33,-27.03,0,*72
1491199270.32,32197,15.31,74130.0,5.25,-26.17,-26.87,0,*78
1491199271.54,32198,15.31,74128.0,5.25,-26.07,-26.77,0,*79
1491199272.75,32199,15.31,74128.3,5.25,-26.39,-27.03,0,*77
1491199273.95,32200,15.31,74132.3,5.25,-26.45,-27.07,0,*7B
1491199275.15,32201,15.31,74128.5,5.25,-26.45,-27.07,0,*7A
1491199276.38,32202,15.31,74132.0,5.25,-26.45,-27.23,0,*7F
1491199277.63,32203,15.31,74130.5,5.25,-26.93,-27.61,0,*73
1491199278.86,32204,15.31,74130.5,5.25,-26.33,-27.07,0,*7E
1491199280.09,32205,15.31,74128.3,5.25,-26.07,-26.77,0,*7E
1491199281.29,32206,15.31,74132.3,5.25,-25.91,-26.45,0,*70
1491199282.5,32207,15.31,74126.8,5.25,-25.87,-26.39,0,*7D
1491199283.72,32208,15.31,74130.3,5.29,-26.17,-26.87,0,*71
1491199284.94,32209,15.31,74130.5,5.31,-27.03,-27.71,0,*75
1491199286.2,32210,15.31,74130.8,5.29,-26.33,-26.97,0,*7F
1491199287.48,32211,15.31,74128.3,5.31,-26.17,-26.81,0,*76
1491199288.68,32212,15.31,74128.3,5.29,-26.39,-27.03,0,*7B
1491199289.92,32213,15.31,74126.8,5.29,-26.33,-27.03,0,*70
1491199291.17,32214,15.31,74128.3,5.31,-25.97,-26.65,0,*72
1491199292.4,32215,15.31,74126.5,5.31,-25.87,-26.39,0,*7B
1491199293.65,32216,15.31,74130.5,5.33,-25.81,-26.33,0,*76
1491199294.93,32217,15.31,74130.5,5.35,-25.75,-26.29,0,*71
1491199296.12,32218,15.31,74130.0,5.33,-25.91,-26.61,0,*7E
1491199297.37,32219,15.31,74128.5,5.35,-25.81,-26.49,0,*72
1491199298.62,32220,15.31,74130.3,5.37,-25.75,-26.29,0,*77
1491199299.88,32221,15.31,74130.0,5.33,-25.75,-26.33,0,*79
1491199301.1,32222,15.31,74128.3,5.35,-25.91,-26.65,0,*75
1491199302.35,32223,15.31,74130.5,5.35,-25.91,-26.33,0,*77
1491199303.61,32224,15.31,74130.0,5.37,-25.55,-26.17,0,*7C
1491199304.83,32225,15.31,74128.3,5.37,-25.87,-26.55,0,*74
1491199306.08,32226,15.31,74128.0,5.41,-25.71,-26.17,0,*79
1491199307.31,32227,15.31,74128.3,5.41,-25.49,-26.13,0,*77
1491199308.53,32228,15.31,74130.5,5.41,-25.81,-26.49,0,*73
1491199309.73,32229,15.31,74128.3,5.41,-25.87,-26.65,0,*7A
1491199310.95,32230,15.31,74128.3,5.41,-26.03,-26.71,0,*78
1491199312.18,32231,15.31,74130.5,5.41,-26.55,-27.29,0,*76
1491199313.38,32232,15.31,74126.5,5.41,-26.39,-27.29,0,*7F
1491199314.6,32233,15.31,74130.0,5.41,-26.23,-26.81,0,*76
1491199315.82,32234,15.31,74130.0,5.41,-26.13,-26.87,0,*74
1491199317.05,32235,15.31,74134.5,5.41,-26.33,-27.03,0,*7A
1491199318.28,32236,15.31,74130.5,5.41,-26.13,-26.87,0,*76
1491199319.51,32237,15.31,74132.3,5.41,-26.33,-27.03,0,*78
1491199320.74,32238,15.31,74128.5,5.41,-26.03,-26.71,0,*70
1491199321.96,32239,15.31,74130.0,5.41,-25.87,-26.55,0,*78
1491199323.15,32240,15.31,74130.0,5.41,-25.87,-26.65,0,*75
1491199324.4,32241,15.31,74130.3,5.43,-26.29,-27.07,0,*74
1491199325.65,32242,15.31,74130.0,5.43,-26.61,-27.23,0,*7D
1491199326.85,32243,15.31,74128.8,5.41,-26.87,-27.67,0,*76
1491199328.1,32244,15.31,74128.3,5.41,-26.17,-26.81,0,*71
1491199329.33,32245,15.31,74128.3,5.41,-25.97,-26.65,0,*71
1491199330.55,32246,15.31,74130.5,5.41,-26.81,-27.55,0,*74
1491199331.78,32247,15.31,74128.8,5.41,-27.13,-27.83,0,*74
1491199332.98,32248,15.31,74134.8,5.41,-26.39,-27.03,0,*7A
1491199334.18,32249,15.31,74128.5,5.41,-26.03,-26.65,0,*73
1491199335.39,32250,15.31,74126.8,5.41,-26.03,-26.65,0,*7B
1491199336.61,32251,15.31,74128.3,5.41,-26.33,-27.13,0,*79
1491199337.8,32252,15.31,74128.3,5.41,-26.23,-26.87,0,*77
1491199339.06,32253,15.31,74128.3,5.41,-26.81,-27.39,0,*7A
1491199340.28,32254,15.31,74128.0,5.41,-26.55,-27.29,0,*75
1491199341.51,32255,15.31,74128.0,5.41,-26.03,-26.71,0,*7B
1491199342.74,32256,15.31,74126.0,5.41,-26.03,-26.71,0,*78
1491199343.97,32257,15.31,74128.3,5.41,-26.33,-27.03,0,*7E
1491199345.22,32258,15.31,74128.3,5.43,-26.33,-27.13,0,*72
1491199346.48,32259,15.31,74130.0,5.43,-26.33,-27.03,0,*72
1491199347.71,32260,15.31,74128.8,5.41,-26.33,-27.13,0,*7B
1491199348.93,32261,15.31,74132.5,5.43,-26.45,-27.13,0,*79
1491199350.15,32262,15.31,74128.0,5.43,-25.91,-26.61,0,*74
1491199351.4,32263,15.31,74124.3,5.43,-25.61,-26.17,0,*7B
1491199352.65,32264,15.31,74124.3,5.43,-26.49,-27.23,0,*73
1491199353.93,32265,15.31,74128.5,5.43,-26.81,-27.61,0,*70
1491199355.18,32266,15.31,74128.8,5.43,-26.97,-27.77,0,*73
1491199356.41,32267,15.31,74130.5,5.43,-26.45,-27.29,0,*76
1491199357.61,32268,15.31,74124.8,5.41,-26.49,-27.13,0,*7E
1491199358.83,32269,15.31,74130.3,5.43,-26.45,-27.13,0,*71
1491199360.05,32270,15.31,74134.3,5.41,-27.19,-27.89,0,*70
1491199361.27,32271,15.31,74124.8,5.41,-27.03,-27.83,0,*70
1491199362.52,32272,15.31,74128.8,5.41,-26.71,-27.39,0,*76
1491199363.75,32273,15.31,74130.8,5.41,-26.33,-27.03,0,*78
1491199364.95,32274,15.31,74128.5,5.41,-26.39,-27.13,0,*74
1491199366.16,32275,15.31,74126.3,5.41,-26.23,-26.97,0,*73
1491199367.41,32276,15.31,74128.3,5.43,-26.23,-26.97,0,*72
1491199368.67,32277,15.31,74130.0,5.43,-26.97,-27.67,0,*72
1491199369.89,32278,15.31,74128.3,5.43,-26.39,-27.13,0,*7A
1491199371.12,32279,15.31,74128.5,5.41,-26.17,-26.87,0,*79
1491199372.34,32280,15.31,74128.0,5.41,-26.23,-26.97,0,*79
1491199373.57,32281,15.31,74130.5,5.41,-26.33,-27.03,0,*75
1491199374.8,32282,15.31,74128.3,5.43,-26.61,-27.29,0,*7B
1491199376.05,32283,15.31,74128.0,5.43,-26.07,-26.77,0,*70
1491199377.28,32284,15.31,74128.0,5.41,-26.03,-26.81,0,*78
1491199378.5,32285,15.31,74130.8,5.43,-25.91,-26.61,0,*7D
1491199379.72,32286,15.31,74130.0,5.43,-25.91,-26.49,0,*74
1491199380.94,32287,15.31,74130.8,5.49,-25.87,-26.55,0,*75
1491199382.13,32288,15.31,74130.5,5.45,-26.07,-26.61,0,*7A
1491199383.38,32289,15.31,74126.3,5.49,-25.71,-26.29,0,*79
1491199384.58,32290,15.31,74130.5,5.45,-25.87,-26.61,0,*78
1491199385.77,32291,15.31,74130.8,5.49,-26.23,-26.87,0,*70
1491199386.97,32292,15.31,74130.3,5.45,-25.87,-26.45,0,*7C
1491199388.21,32293,15.31,74128.3,5.51,-25.35,-25.97,0,*7D
1491199389.44,32294,15.31,74130.8,5.51,-25.39,-26.07,0,*7C
1491199390.66,32295,15.31,74130.8,5.53,-25.49,-26.29,0,*74
1491199391.92,32296,15.31,74126.5,5.51,-26.03,-26.71,0,*75
1491199393.17,32297,15.31,74130.0,5.51,-25.71,-26.39,0,*7E
1491199394.42,32298,15.31,74130.0,5.53,-25.75,-26.33,0,*7D
1491199395.67,32299,15.31,74128.5,5.51,-26.07,-26.81,0,*71
1491199396.92,32300,15.31,74128.8,5.53,-26.17,-26.81,0,*73
1491199398.17,32301,15.31,74130.5,5.53,-26.17,-26.81,0,*72
1491199399.45,32302,15.31,74128.0,5.51,-26.17,-26.81,0,*73
1491199400.69,32303,15.31,74130.5,5.57,-25.91,-26.55,0,*70
1491199401.91,32304,15.31,74130.5,5.53,-25.97,-26.61,0,*72
1491199403.13,32305,15.31,74130.0,5.53,-25.81,-26.45,0,*72
1491199404.34,32306,15.31,74132.0,5.53,-25.81,-26.45,0,*71
1491199405.59,32307,15.31,74130.0,5.53,-26.17,-26.97,0,*73
1491199406.82,32308,15.31,74130.5,5.53,-26.65,-27.35,0,*70
1491199408.02,32309,15.31,74128.5,5.53,-26.49,-27.29,0,*72
1491199409.27,32310,15.31,74128.5,5.53,-26.17,-26.97,0,*75
1491199410.48,32311,15.31,74128.5,5.53,-26.61,-27.45,0,*7B
1491199411.7,32312,15.31,74130.5,5.53,-26.61,-27.35,0,*7F
1491199412.95,32313,15.31,74128.5,5.53,-26.77,-27.45,0,*7E
1491199414.16,32314,15.31,74128.5,5.53,-25.97,-26.61,0,*73
1491199415.41,32315,15.31,74132.3,5.53,-26.17,-26.93,0,*74
1491199416.66,32316,15.31,74130.3,5.53,-26.33,-27.19,0,*72
1491199417.91,32317,15.31,74130.5,5.53,-26.93,-27.61,0,*76
1491199419.15,32318,15.31,74130.8,5.53,-26.93,-27.61,0,*79
1491199420.38,32319,15.31,74130.5,5.51,-27.13,-27.71,0,*72
1491199421.62,32320,15.31,74128.3,5.51,-26.23,-26.81,0,*74
1491199422.87,32321,15.31,74134.5,5.53,-26.97,-27.61,0,*77
1491199424.09,32322,15.31,74130.5,5.51,-26.87,-27.51,0,*74
1491199425.32,32323,15.31,74130.0,5.53,-26.33,-27.07,0,*7B
1491199426.56,32324,15.31,74130.0,5.51,-25.87,-26.55,0,*74
1491199427.79,32325,15.31,74130.0,5.53,-25.65,-26.33,0,*7B
1491199429.03,32326,15.31,74130.5,5.53,-25.75,-26.33,0,*79
1491199430.28,32327,15.31,74128.3,5.51,-25.97,-26.65,0,*75
1491199431.53,32328,15.31,74128.8,5.53,-25.75,-26.33,0,*77
1491199432.73,32329,15.31,74128.3,5.53,-25.49,-26.03,0,*7A
1491199434.0,32330,15.31,74132.8,5.57,-25.45,-25.97,0,*74
1491199435.25,32331,15.31,74132.3,5.59,-25.97,-26.71,0,*7F
1491199436.47,32332,15.31,74128.3,5.57,-25.87,-26.45,0,*74
1491199437.67,32333,15.31,74130.8,5.59,-25.91,-26.45,0,*7C
1491199438.86,32334,15.31,74130.5,5.59,-25.91,-26.45,0,*7B
1491199440.09,32335,15.31,74128.8,5.59,-25.75,-26.45,0,*70
1491199441.31,32336,15.31,74130.8,5.59,-26.13,-27.03,0,*73
1491199442.56,32337,15.31,74134.0,5.59,-26.55,-27.23,0,*72
1491199443.76,32338,15.31,74134.0,5.59,-26.07,-26.61,0,*7D
1491199444.96,32339,15.31,74128.8,5.59,-26.39,-27.03,0,*74
1491199446.19,32340,15.31,74130.5,5.59,-26.13,-26.87,0,*7F
1491199447.44,32341,15.31,74134.3,5.59,-25.55,-26.13,0,*72
1491199448.66,32342,15.31,74134.3,5.59,-25.45,-25.91,0,*79
1491199449.88,32343,15.31,74132.8,5.59,-25.75,-26.45,0,*71
1491199451.14,32344,15.31,74128.8,5.59,-25.55,-25.97,0,*78
1491199452.34,32345,15.31,74128.0,5.63,-25.49,-26.07,0,*77
1491199453.56,32346,15.31,74130.5,5.63,-25.49,-26.17,0,*75
1491199454.8,32347,15.31,74128.5,5.61,-25.87,-26.55,0,*72
1491199456.02,32348,15.31,74128.8,5.63,-25.87,-26.55,0,*7F
1491199457.25,32349,15.31,74132.8,5.63,-26.33,-27.07,0,*74
1491199458.47,32350,15.31,74128.8,5.63,-25.91,-26.55,0,*71
1491199459.66,32351,15.31,74130.5,5.63,-25.91,-26.49,0,*7D
1491199460.87,32352,15.31,74130.8,5.63,-25.81,-26.49,0,*7F
1491199462.07,32353,15.31,74130.8,5.67,-25.87,-26.61,0,*76
1491199463.28,32354,15.31,74134.3,5.67,-26.23,-26.77,0,*7B
1491199464.55,32355,15.31,74130.8,5.69,-25.81,-26.55,0,*7F
1491199465.79,32356,15.31,74130.5,5.69,-25.61,-26.29,0,*79
1491199467.04,32357,15.31,74134.5,5.69,-25.75,-26.39,0,*7C
1491199468.26,32358,15.31,74130.8,5.67,-25.97,-26.65,0,*78
1491199469.53,32359,15.31,74128.5,5.69,-26.13,-26.77,0,*7B
1491199470.75,32360,15.31,74130.0,5.67,-25.61,-26.17,0,*7F
1491199472.03,32361,15.31,74132.0,5.69,-25.55,-26.13,0,*73
1491199473.27,32362,15.31,74128.8,5.69,-25.55,-26.23,0,*73
1491199474.52,32363,15.31,74132.0,5.69,-25.39,-25.97,0,*74
1491199475.74,32364,15.31,74132.0,5.71,-25.23,-25.71,0,*79
1491199476.96,32365,15.31,74128.8,5.71,-25.71,-26.45,0,*7B
1491199478.2,32366,15.31,74130.8,5.71,-26.13,-26.77,0,*7E
1491199479.43,32367,15.31,74132.8,5.71,-25.71,-26.39,0,*72
1491199480.65,32368,15.31,74132.0,5.73,-25.65,-26.23,0,*71
1491199481.89,32369,15.31,74128.3,5.73,-26.17,-26.87,0,*78
1491199483.13,32370,15.31,74130.8,5.73,-25.91,-26.71,0,*74
1491199484.38,32371,15.31,74134.3,5.73,-25.75,-26.39,0,*73
1491199485.66,32372,15.31,74132.8,5.73,-26.33,-26.93,0,*71
1491199486.89,32373,15.31,74130.8,5.73,-25.91,-26.55,0,*71
1491199488.11,32374,15.31,74134.8,5.73,-25.91,-26.49,0,*7B
1491199489.35,32375,15.31,74132.3,5.73,-25.65,-26.33,0,*7C
1491199490.6,32376,15.31,74134.0,5.75,-26.55,-27.19,0,*70
1491199491.85,32377,15.31,74134.8,5.73,-26.65,-27.35,0,*7A
1491199493.09,32378,15.31,74134.3,5.73,-26.17,-26.65,0,*74
1491199494.31,32379,15.31,74132.0,5.73,-25.87,-26.49,0,*71
1491199495.56,32380,15.31,74130.8,5.73,-26.17,-26.87,0,*7F
1491199496.78,32381,15.31,74132.5,5.73,-26.39,-27.07,0,*7B
1491199498.02,32382,15.31,74132.8,5.71,-26.55,-27.23,0,*76
1491199499.23,32383,15.31,74134.8,5.73,-25.65,-26.23,0,*74
1491199500.45,32384,15.31,74134.0,5.73,-25.65,-26.23,0,*73
1491199501.69,32385,15.31,74134.8,5.73,-25.75,-26.49,0,*7F
1491199502.97,32386,15.31,74132.0,5.73,-25.71,-26.33,0,*75
1491199504.19,32387,15.31,74132.5,5.75,-25.75,-26.49,0,*7B
1491199505.41,32388,15.31,74130.5,5.75,-25.75,-26.39,0,*73
1491199506.63,32389,15.31,74134.3,5.75,-25.55,-26.23,0,*7B
1491199507.88,32390,15.31,74132.5,5.77,-25.61,-26.17,0,*71
1491199509.15,32391,15.31,74132.0,5.77,-25.71,-26.29,0,*7C
1491199510.39,32392,15.31,74132.0,5.77,-25.29,-25.87,0,*75
1491199511.62,32393,15.31,74134.0,5.77,-25.13,-25.65,0,*71
1491199512.83,32394,15.31,74132.5,5.79,-25.23,-25.81,0,*71
1491199514.06,32395,15.31,74132.3,5.83,-25.23,-25.75,0,*7E
1491199515.26,32396,15.31,74134.0,5.79,-25.13,-25.65,0,*7A
1491199516.5,32397,15.31,74134.8,5.81,-25.75,-26.45,0,*7D
1491199517.72,32398,15.31,74132.8,5.81,-25.91,-26.61,0,*7E
1491199518.96,32399,15.31,74134.5,5.81,-25.97,-26.61,0,*79
1491199520.23,32400,15.31,74134.8,5.81,-25.75,-26.29,0,*7E
1491199521.42,32401,15.31,74134.3,5.83,-25.35,-25.91,0,*79
1491199522.65,32402,15.31,74132.5,5.83,-25.55,-26.07,0,*70
1491199523.88,32403,15.31,74130.8,5.83,-25.49,-26.17,0,*7D
1491199525.1,32404,15.31,74130.8,5.83,-25.71,-26.23,0,*76
1491199526.33,32405,15.31,74132.3,5.85,-25.49,-26.07,0,*7C
1491199527.58,32406,15.31,74130.0,5.83,-26.17,-26.77,0,*76
1491199528.8,32407,15.31,74128.3,5.83,-25.61,-26.33,0,*75
1491199530.0,32408,15.31,74134.3,5.83,-25.39,-25.91,0,*7C
1491199531.25,32409,15.31,74132.5,5.85,-25.61,-26.33,0,*7D
1491199532.47,32410,15.31,74132.5,5.83,-26.03,-26.55,0,*74
1491199533.71,32411,15.31,74132.8,5.85,-25.87,-26.55,0,*7C
1491199534.99,32412,15.31,74132.3,5.85,-25.75,-26.33,0,*72
1491199536.19,32413,15.31,74130.8,5.83,-26.03,-26.65,0,*74
1491199537.46,32414,15.31,74128.8,5.85,-26.55,-27.23,0,*75
1491199538.69,32415,15.31,74134.0,5.83,-26.33,-27.03,0,*70
1491199539.94,32416,15.31,74134.0,5.83,-26.33,-26.93,0,*7B
1491199541.21,32417,15.31,74128.5,5.85,-26.71,-27.39,0,*7B
1491199542.46,32418,15.31,74130.8,5.83,-26.55,-27.35,0,*78
1491199543.66,32419,15.31,74134.3,5.83,-26.49,-27.07,0,*75
1491199544.9,32420,15.31,74130.8,5.83,-26.71,-27.39,0,*79
1491199546.15,32421,15.31,74134.3,5.81,-26.39,-26.97,0,*73
1491199547.37,32422,15.31,74128.0,5.83,-26.49,-27.19,0,*72
1491199548.58,32423,15.31,74134.8,5.83,-25.87,-26.39,0,*71
1491199549.8,32424,15.31,74134.3,5.83,-25.75,-26.49,0,*7C
1491199551.02,32425,15.31,74130.5,5.83,-25.75,-26.49,0,*7D
1491199552.25,32426,15.31,74130.3,5.83,-25.71,-26.39,0,*7D
1491199553.48,32427,15.31,74132.5,5.83,-25.61,-26.33,0,*77
1491199554.7,32428,15.31,74134.0,5.85,-26.03,-26.65,0,*7A
1491199555.92,32429,15.31,74130.8,5.85,-26.39,-27.07,0,*77
1491199557.13,32430,15.31,74130.5,5.83,-26.03,-26.65,0,*75
1491199558.37,32431,15.31,74134.8,5.85,-25.61,-26.17,0,*70
1491199559.58,32432,15.31,74130.3,5.85,-25.61,-26.23,0,*74
1491199560.81,32433,15.31,74134.8,5.85,-25.87,-26.39,0,*76
1491199562.05,32434,15.31,74134.3,5.85,-25.55,-26.23,0,*75
1491199563.29,32435,15.31,74132.0,5.85,-25.87,-26.55,0,*7A
1491199564.55,32436,15.31,74132.3,5.89,-25.97,-26.65,0,*77
1491199565.83,32437,15.31,74134.0,5.89,-25.55,-26.17,0,*7D
1491199567.09,32438,15.31,74132.3,5.89,-25.49,-26.13,0,*7B
1491199568.34,32439,15.31,74132.5,5.89,-25.97,-26.49,0,*76
1491199569.62,32440,15.31,74128.8,5.89,-26.17,-26.81,0,*77
1491199570.83,32441,15.31,74132.3,5.91,-25.87,-26.61,0,*7B
1491199572.09,32442,15.31,74134.0,5.89,-26.03,-26.81,0,*70
1491199573.34,32443,15.31,74134.5,5.89,-26.13,-26.87,0,*76
1491199574.6,32444,15.31,74134.0,5.89,-26.45,-27.19,0,*74
1491199575.85,32445,15.38,74138.8,5.89,-26.29,-26.87,0,*79
1491199577.14,32446,15.31,74134.3,5.89,-25.71,-26.33,0,*7B
1491199578.36,32447,15.38,74138.3,5.91,-25.45,-26.07,0,*73
1491199579.59,32448,15.31,74134.5,5.91,-26.23,-26.93,0,*72
1491199580.84,32449,15.31,74134.8,5.91,-25.81,-26.55,0,*72
1491199582.08,32450,15.31,74138.0,5.91,-25.35,-25.97,0,*78
1491199583.3,32451,15.31,74134.3,5.91,-25.23,-25.81,0,*79
1491199584.51,32452,15.31,74136.5,5.91,-25.09,-25.65,0,*78
1491199585.75,32453,15.31,74134.3,5.91,-25.23,-25.97,0,*7C
1491199586.98,32454,15.31,74134.0,5.93,-25.39,-26.07,0,*78
1491199588.18,32455,15.31,74134.5,5.95,-25.35,-25.91,0,*7F
1491199589.45,32456,15.31,74138.3,5.93,-25.75,-26.39,0,*7F
1491199590.71,32457,15.31,74132.5,5.95,-25.75,-26.33,0,*72
1491199591.95,32458,15.31,74138.3,5.95,-26.17,-26.87,0,*75
1491199593.23,32459,15.31,74136.3,5.93,-25.81,-26.55,0,*71
1491199594.48,32460,15.31,74132.8,5.93,-25.91,-26.55,0,*7A
1491199595.69,32461,15.31,74132.8,5.95,-26.39,-27.07,0,*7A
1491199596.93,32462,15.31,74132.0,5.95,-26.77,-27.51,0,*70
1491199598.16,32463,15.31,74132.5,5.95,-27.19,-27.89,0,*7D
1491199599.42,32464,15.31,74132.3,5.93,-26.97,-27.67,0,*7B
1491199600.71,32465,15.31,74132.5,5.93,-27.23,-27.99,0,*75
1491199602.0,32466,15.31,74134.5,5.93,-26.77,-27.23,0,*77
1491199603.26,32467,15.31,74134.8,5.91,-26.13,-26.77,0,*76
1491199604.51,32468,15.31,74134.8,5.89,-25.81,-26.45,0,*79
1491199605.76,32469,15.31,74134.3,5.91,-26.29,-26.93,0,*7B
1491199607.02,32470,15.31,74132.8,5.89,-26.17,-26.87,0,*72
1491199608.25,32471,15.31,74134.5,5.91,-26.07,-26.81,0,*7D
1491199609.48,32472,15.31,74138.0,5.89,-25.87,-26.61,0,*72
1491199610.72,32473,15.31,74132.0,5.91,-25.75,-26.39,0,*7A
1491199611.96,32474,15.31,74132.5,5.91,-25.97,-26.65,0,*78
1491199613.21,32475,15.31,74134.0,5.91,-25.97,-26.55,0,*7A
1491199614.45,32476,15.31,74134.5,5.93,-25.61,-26.39,0,*78
1491199615.68,32477,15.31,74132.0,5.93,-25.49,-26.23,0,*78
1491199616.97,32478,15.31,74138.3,5.93,-26.13,-26.81,0,*73
1491199618.26,32479,15.31,74132.0,5.93,-26.29,-26.97,0,*7C
1491199619.52,32480,15.31,74132.3,5.93,-26.39,-26.97,0,*7B
1491199620.81,32481,15.31,74134.3,5.93,-26.77,-27.39,0,*75
1491199622.07,32482,15.31,74138.5,5.93,-25.75,-26.45,0,*7D
1491199623.28,32483,15.31,74134.5,5.95,-25.39,-26.07,0,*74
1491199624.51,32484,15.31,74134.5,5.95,-25.09,-25.75,0,*76
1491199625.78,32485,15.31,74134.3,5.93,-25.13,-25.75,0,*7A
1491199627.04,32486,15.31,74138.8,5.95,-25.55,-26.33,0,*7C
1491199628.27,32487,15.31,74136.5,5.97,-25.35,-25.91,0,*72
1491199629.49,32488,15.31,74132.3,5.97,-25.19,-25.87,0,*74
1491199630.72,32489,15.38,74140.5,5.97,-25.23,-25.65,0,*70
1491199631.95,32490,15.31,74136.3,5.97,-25.35,-25.91,0,*74
1491199633.18,32491,15.31,74136.3,5.99,-25.49,-26.17,0,*7D
1491199634.45,32492,15.31,74136.5,5.99,-25.55,-26.29,0,*7E
1491199635.65,32493,15.31,74132.8,5.99,-25.87,-26.49,0,*76
1491199636.91,32494,15.31,74134.5,5.97,-25.61,-26.33,0,*7A
1491199638.14,32495,15.31,74134.5,5.99,-25.29,-26.03,0,*7A
1491199639.38,32496,15.31,74136.8,5.99,-25.65,-26.33,0,*72
1491199640.63,32497,15.31,74136.5,5.97,-25.35,-25.97,0,*75
1491199641.87,32498,15.31,74134.3,5.99,-25.39,-26.13,0,*77
1491199643.12,32499,15.31,74136.5,6.01,-25.29,-26.07,0,*70
1491199644.35,32500,15.31,74136.8,6.03,-25.13,-25.81,0,*77
1491199645.61,32501,15.31,74134.0,6.01,-25.09,-25.75,0,*74
1491199646.83,32502,15.31,74132.0,6.03,-24.97,-25.49,0,*7C
1491199648.11,32503,15.31,74138.3,6.05,-25.03,-25.71,0,*7C
1491199649.37,32504,15.31,74134.3,6.03,-25.29,-25.97,0,*7D
1491199650.58,32505,15.31,74134.3,6.07,-25.23,-26.03,0,*7C
1491199651.87,32506,15.31,74134.5,6.05,-25.55,-26.17,0,*79
1491199653.09,32507,15.31,74134.3,6.05,-25.91,-26.61,0,*71
1491199654.36,32508,15.31,74132.3,6.05,-25.71,-26.39,0,*7D
1491199655.59,32509,15.31,74132.0,6.05,-25.39,-25.91,0,*71
1491199656.87,32510,15.31,74132.0,6.05,-25.29,-25.71,0,*76
1491199658.14,32511,15.31,74136.0,6.07,-25.03,-25.71,0,*7D
1491199659.4,32512,15.31,74132.5,6.07,-24.87,-25.55,0,*75
1491199660.67,32513,15.31,74134.8,6.09,-24.71,-25.39,0,*79
1491199661.9,32514,15.31,74134.0,6.13,-24.93,-25.61,0,*74
1491199663.13,32515,15.31,74136.3,6.13,-25.09,-25.65,0,*73
1491199664.35,32516,15.31,74138.5,6.13,-25.13,-25.91,0,*70
1491199665.61,32517,15.31,74132.0,6.13,-25.49,-26.29,0,*7E
1491199666.86,32518,15.31,74132.8,6.13,-26.23,-26.97,0,*7B
1491199668.14,32519,15.31,74134.3,6.13,-26.29,-26.97,0,*70
1491199669.42,32520,15.31,74136.0,6.13,-26.33,-27.23,0,*7F
1491199670.68,32521,15.31,74132.5,6.13,-26.49,-27.35,0,*74
1491199671.94,32522,15.31,74132.8,6.13,-26.33,-27.07,0,*7B
1491199673.22,32523,15.31,74132.8,6.09,-26.13,-26.81,0,*7C
1491199674.49,32524,15.31,74136.0,6.09,-26.03,-26.71,0,*75
1491199675.72,32525,15.31,74134.8,6.09,-25.39,-26.03,0,*7B
1491199676.98,32526,15.31,74132.5,6.09,-25.19,-25.81,0,*73
1491199678.23,32527,15.31,74134.3,6.13,-25.29,-26.03,0,*73
1491199679.47,32528,15.31,74134.8,6.09,-25.35,-26.03,0,*7A
1491199680.72,32529,15.31,74136.8,6.13,-25.09,-25.75,0,*7D
1491199681.95,32530,15.31,74134.3,6.15,-24.97,-25.75,0,*75
1491199683.18,32531,15.31,74134.5,6.15,-25.13,-25.81,0,*72
1491199684.42,32532,15.31,74134.3,6.15,-24.83,-25.49,0,*7D
1491199685.65,32533,15.31,74134.5,6.15,-25.29,-26.07,0,*74
1491199686.88,32534,15.31,74136.0,6.15,-25.19,-25.81,0,*7D
1491199688.1,32535,15.31,74132.0,6.17,-25.23,-25.91,0,*76
1491199689.35,32536,15.31,74134.3,6.17,-24.93,-25.71,0,*71
1491199690.64,32537,15.31,74134.0,6.17,-25.03,-25.71,0,*78
1491199691.85,32538,15.31,74134.3,6.19,-24.97,-25.65,0,*70
1491199693.06,32539,15.31,74132.0,6.19,-24.97,-25.65,0,*71
1491199694.26,32540,15.31,74132.0,6.21,-25.35,-26.03,0,*7E
1491199695.49,32541,15.31,74134.0,6.21,-24.87,-25.65,0,*74
1491199696.72,32542,15.31,74134.0,6.21,-24.97,-25.71,0,*73
1491199697.95,32543,15.31,74134.8,6.21,-24.87,-25.65,0,*76
1491199699.21,32544,15.31,74134.8,6.21,-24.87,-25.55,0,*72
1491199700.47,32545,15.31,74134.8,6.21,-24.87,-25.55,0,*73
1491199701.72,32546,15.31,74132.0,6.23,-25.29,-26.07,0,*73